Time,TemperatureF,DewpointF,PressureIn,WindDirection,WindDirectionDegrees,WindSpeedMPH,WindSpeedGustMPH,Humidity,HourlyPrecipIn,Conditions,Clouds,dailyrainin,SoftwareType,DateUTC
2016-07-30 00:10:00,71.0,42.0,-100.00,SW,225,1.0,-999.0,36,-99.99,,,-99.99,,2016-07-30 06:10:00,
2016-07-30 00:25:00,68.0,42.0,-100.00,SW,220,2.0,3.0,39,-99.99,,,-99.99,,2016-07-30 06:25:00,
2016-07-30 00:34:00,68.0,42.0,-100.00,SW,220,2.0,3.0,39,-99.99,,,-99.99,,2016-07-30 06:34:00,
2016-07-30 00:56:00,63.0,45.0,-100.00,South,180,2.0,4.0,52,-99.99,,,-99.99,,2016-07-30 06:56:00,
2016-07-30 01:04:00,63.0,45.0,-100.00,South,180,2.0,4.0,52,-99.99,,,-99.99,,2016-07-30 07:04:00,
2016-07-30 01:13:00,62.0,46.0,-100.00,South,190,1.0,3.0,56,-99.99,,,-99.99,,2016-07-30 07:13:00,
2016-07-30 01:26:00,62.0,46.0,-100.00,South,190,1.0,3.0,56,-99.99,,,-99.99,,2016-07-30 07:26:00,
2016-07-30 01:34:00,60.0,46.0,-100.00,North,-9999,0.0,1.0,60,-99.99,,,-99.99,,2016-07-30 07:34:00,
2016-07-30 01:44:00,60.0,46.0,-100.00,North,-9999,0.0,1.0,60,-99.99,,,-99.99,,2016-07-30 07:44:00,
2016-07-30 01:53:00,58.0,46.0,-100.00,WSW,240,1.0,3.0,64,-99.99,,,-99.99,,2016-07-30 07:53:00,
2016-07-30 02:04:00,58.0,46.0,-100.00,WSW,240,1.0,3.0,64,-99.99,,,-99.99,,2016-07-30 08:04:00,
2016-07-30 02:13:00,58.0,46.0,-100.00,North,-9999,0.0,1.0,64,-99.99,,,-99.99,,2016-07-30 08:13:00,
2016-07-30 02:23:00,58.0,46.0,-100.00,North,-9999,0.0,1.0,64,-99.99,,,-99.99,,2016-07-30 08:23:00,
2016-07-30 02:34:00,56.0,46.0,-100.00,NNE,20,2.0,3.0,68,-99.99,,,-99.99,,2016-07-30 08:34:00,
2016-07-30 02:46:00,56.0,46.0,-100.00,NE,55,2.0,3.0,68,-99.99,,,-99.99,,2016-07-30 08:46:00,
2016-07-30 02:53:00,56.0,46.0,-100.00,NE,55,2.0,3.0,68,-99.99,,,-99.99,,2016-07-30 08:53:00,
2016-07-30 03:03:00,56.0,46.0,-100.00,NE,55,2.0,3.0,68,-99.99,,,-99.99,,2016-07-30 09:03:00,
2016-07-30 03:13:00,57.0,46.0,-100.00,ENE,60,2.0,2.0,67,-99.99,,,-99.99,,2016-07-30 09:13:00,
2016-07-30 03:23:00,57.0,46.0,-100.00,ENE,60,2.0,2.0,67,-99.99,,,-99.99,,2016-07-30 09:23:00,
2016-07-30 03:40:00,54.0,46.0,-100.00,North,-9999,0.0,-999.0,74,-99.99,,,-99.99,,2016-07-30 09:40:00,
2016-07-30 04:10:00,53.0,46.0,-100.00,WNW,300,1.0,-999.0,76,-99.99,,,-99.99,,2016-07-30 10:10:00,
2016-07-30 04:20:00,52.0,45.0,-100.00,ENE,60,3.0,-999.0,77,-99.99,,,-99.99,,2016-07-30 10:20:00,
2016-07-30 04:32:00,52.0,47.0,-100.00,NNE,25,4.0,-999.0,81,-99.99,,,-99.99,,2016-07-30 10:32:00,
2016-07-30 04:40:00,52.0,47.0,-100.00,NNE,25,4.0,-999.0,81,-99.99,,,-99.99,,2016-07-30 10:40:00,
2016-07-30 05:01:00,51.0,46.0,-100.00,North,350,1.0,-999.0,83,-99.99,,,-99.99,,2016-07-30 11:01:00,
2016-07-30 05:11:00,51.0,46.0,-100.00,North,350,1.0,-999.0,83,-99.99,,,-99.99,,2016-07-30 11:11:00,
2016-07-30 05:21:00,50.0,46.0,-100.00,NE,55,1.0,-999.0,85,-99.99,,,-99.99,,2016-07-30 11:21:00,
2016-07-30 05:31:00,50.0,46.0,-100.00,NE,55,1.0,-999.0,85,-99.99,,,-99.99,,2016-07-30 11:31:00,
2016-07-30 05:41:00,50.0,47.0,-100.00,NNE,25,2.0,-999.0,88,-99.99,,,-99.99,,2016-07-30 11:41:00,
2016-07-30 05:54:00,51.0,47.0,-100.00,North,355,1.0,2.0,87,-99.99,,,-99.99,,2016-07-30 11:54:00,
2016-07-30 06:05:00,51.0,47.0,-100.00,North,355,1.0,-999.0,87,-99.99,,,-99.99,,2016-07-30 12:05:00,
2016-07-30 06:13:00,50.0,46.0,-100.00,NNE,25,1.0,3.0,86,-99.99,,,-99.99,,2016-07-30 12:13:00,
2016-07-30 06:23:00,50.0,46.0,-100.00,NNE,25,1.0,3.0,86,-99.99,,,-99.99,,2016-07-30 12:23:00,
2016-07-30 06:35:00,50.0,46.0,-100.00,NNE,20,2.0,4.0,87,-99.99,,,-99.99,,2016-07-30 12:35:00,
2016-07-30 06:47:00,50.0,46.0,-100.00,NE,40,2.0,4.0,88,-99.99,,,-99.99,,2016-07-30 12:47:00,
2016-07-30 06:54:00,50.0,46.0,-100.00,NE,40,2.0,4.0,88,-99.99,,,-99.99,,2016-07-30 12:54:00,
2016-07-30 07:07:00,50.0,46.0,-100.00,NE,40,2.0,4.0,88,-99.99,,,-99.99,,2016-07-30 13:07:00,
2016-07-30 07:13:00,51.0,46.0,-100.00,NNE,30,4.0,5.0,86,-99.99,,,-99.99,,2016-07-30 13:13:00,
2016-07-30 07:24:00,51.0,46.0,-100.00,NNE,30,4.0,5.0,86,-99.99,,,-99.99,,2016-07-30 13:24:00,
2016-07-30 07:34:00,49.0,47.0,-100.00,North,-9999,0.0,2.0,91,-99.99,,,-99.99,,2016-07-30 13:34:00,
2016-07-30 07:45:00,49.0,47.0,-100.00,North,-9999,0.0,2.0,91,-99.99,,,-99.99,,2016-07-30 13:45:00,
2016-07-30 07:54:00,50.0,47.0,-100.00,North,5,1.0,2.0,91,-99.99,,,-99.99,,2016-07-30 13:54:00,
2016-07-30 08:03:00,50.0,47.0,-100.00,North,5,1.0,2.0,91,-99.99,,,-99.99,,2016-07-30 14:03:00,
2016-07-30 08:14:00,52.0,49.0,-100.00,NNE,30,2.0,2.0,89,-99.99,,,-99.99,,2016-07-30 14:14:00,
2016-07-30 08:23:00,52.0,49.0,-100.00,NNE,30,2.0,2.0,89,-99.99,,,-99.99,,2016-07-30 14:23:00,
2016-07-30 09:03:00,63.0,50.0,-100.00,South,190,2.0,3.0,63,-99.99,,,-99.99,,2016-07-30 15:03:00,
2016-07-30 09:13:00,63.0,50.0,-100.00,SSW,200,1.0,2.0,62,-99.99,,,-99.99,,2016-07-30 15:13:00,
2016-07-30 09:23:00,63.0,50.0,-100.00,SSW,200,1.0,2.0,62,-99.99,,,-99.99,,2016-07-30 15:23:00,
2016-07-30 09:40:00,68.0,50.0,-100.00,SE,145,1.0,-999.0,52,-99.99,,,-99.99,,2016-07-30 15:40:00,
2016-07-30 10:00:00,70.0,50.0,-100.00,SW,225,1.0,-999.0,49,-99.99,,,-99.99,,2016-07-30 16:00:00,
2016-07-30 10:20:00,72.0,50.0,-100.00,North,-9999,0.0,-999.0,46,-99.99,,,-99.99,,2016-07-30 16:20:00,
2016-07-30 10:32:00,76.0,49.0,-100.00,ESE,120,-999.9,-999.0,39,-99.99,,,-99.99,,2016-07-30 16:32:00,
2016-07-30 11:21:00,79.0,47.0,-100.00,ESE,105,2.0,-999.0,33,-99.99,,,-99.99,,2016-07-30 17:21:00,
2016-07-30 11:30:00,79.0,47.0,-100.00,ESE,105,2.0,-999.0,33,-99.99,,,-99.99,,2016-07-30 17:30:00,
2016-07-30 11:43:00,81.0,49.0,-100.00,SSE,160,2.0,-999.0,32,-99.99,,,-99.99,,2016-07-30 17:43:00,
2016-07-30 11:51:00,81.0,49.0,-100.00,SSE,160,2.0,-999.0,32,-99.99,,,-99.99,,2016-07-30 17:51:00,
2016-07-30 12:03:00,83.0,48.0,-100.00,East,85,4.0,-999.0,30,-99.99,,,-99.99,,2016-07-30 18:03:00,
2016-07-30 12:10:00,83.0,48.0,-100.00,East,85,4.0,-999.0,30,-99.99,,,-99.99,,2016-07-30 18:10:00,
2016-07-30 12:21:00,83.0,48.0,-100.00,NE,50,5.0,-999.0,29,-99.99,,,-99.99,,2016-07-30 18:21:00,